Regional Weather Roundup
Issued by NWS

Home | Current Version | Previous Version | Graphics & Text | Print | Product List | Glossary On
Versions: 1 2 3 4 5 6 7 8 9 10 11 12 13 14 15 16 17 18 19 20 21 22 23 24 25 26 27 28 29 30 31 32 33 34 35 36 37 38 39 40 41 42 43 44 45 46 47 48 49 50
000
ASUS43 KDTX 291810
RWRMI
MICHIGAN HOURLY REGIONAL WEATHER ROUNDUP
NATIONAL WEATHER SERVICE DETROIT/PONTIAC MI
200 PM EDT TUE JUL 29 2014

NOTE: "FAIR" INDICATES FEW OR NO CLOUDS BELOW 12,000 FEET WITH NO
SIGNIFICANT WEATHER AND/OR OBSTRUCTION TO VISIBILITY.

MIZ047>049-052>055-059>063-066>070-074>076-081>083-291900-
SOUTHEAST LOWER MICHIGAN

CITY           SKY/WX    TMP DP  RH WIND       PRES   REMARKS
ADRIAN         CLOUDY    69  50  50 W9        30.02F
6HR MIN TEMP:  50; 6HR MAX TEMP:  69; 6HR PCP: TRACE;

ALMA           PTSUNNY   71  56  58 NW10      29.96F
6HR MIN TEMP:  53; 6HR MAX TEMP:  72;

ANN ARBOR      PTSUNNY   71  51  49 SW9G18    30.00F
BAD AXE        PTSUNNY   66  58  76 W10       29.95S
DETROIT CITY   CLOUDY    73  51  46 W12       29.98F
6HR MIN TEMP:  58; 6HR MAX TEMP:  74;

DETROIT        CLOUDY    70  52  52 VRB3      30.00F
6HR MIN TEMP:  57; 6HR MAX TEMP:  71;

FLINT          PTSUNNY   71  55  56 W9        29.96F
6HR MIN TEMP:  54; 6HR MAX TEMP:  72;

GROSSE ILE     PTSUNNY   72  54  53 W7        29.98F
HILLSDALE      PTSUNNY   70  55  59 W8        30.02S
HOWELL         PTSUNNY   69  53  57 SW10G16   29.98F

CITY           SKY/WX    TMP DP  RH WIND       PRES   REMARKS
JACKSON        MOSUNNY   71  55  56 SW12      30.00F
6HR MIN TEMP:  51; 6HR MAX TEMP:  71;

LAMBERTVILLE   CLOUDY    66  54  63 SW5       30.02S
LANSING        PTSUNNY   71  56  58 SW9       29.98F
6HR MIN TEMP:  53; 6HR MAX TEMP:  71; 6HR PCP:  0.02;

LAPEER         NOT AVBL
MASON          PTSUNNY   69  55  61 W7        29.99S
MONROE         PTSUNNY   70  52  52 W12       29.99F
MT. CLEMENS    PTSUNNY   69  51  52 W9        29.96F
6HR MIN TEMP:  57; 6HR MAX TEMP:  71;

PONTIAC        PTSUNNY   69  52  54 W13       29.97F
6HR MIN TEMP:  54; 6HR MAX TEMP:  69; 6HR PCP: TRACE;

PORT HOPE        N/A     65  56  72 SW7       29.92S
6HR MIN TEMP:  57; 6HR MAX TEMP:  66; 6HR PCP:  0.02;

PORT HURON     CLOUDY    68  55  64 SW7       29.97S
TRI CITIES     CLOUDY    71  56  58 NW10      29.95F
6HR MIN TEMP:  55; 6HR MAX TEMP:  72;

YPSILANTI      CLOUDY    70  52  52 SW8       30.00F
6HR MIN TEMP:  58; 6HR MAX TEMP:  73; 6HR PCP: TRACE;

$$
MIZ043>046-050>051-056>058-064>065-071>073-077>080-291900-
SOUTHWEST LOWER MICHIGAN

CITY           SKY/WX    TMP DP  RH WIND       PRES   REMARKS
BATTLE CREEK   PTSUNNY   69  56  62 W8        30.00F
6HR MIN TEMP:  54; 6HR MAX TEMP:  71;

BENTON HARBOR  MOSUNNY   68  58  70 W9        30.03S
6HR MIN TEMP:  52; 6HR MAX TEMP:  69;

BIG RAPIDS     PTSUNNY   69  54  58 NW7       29.96F
6HR MIN TEMP:  54; 6HR MAX TEMP:  72;

COLDWATER      CLOUDY    69  57  65 SW6       30.02S
6HR MIN TEMP:  52; 6HR MAX TEMP:  69;

HOLLAND        SUNNY     72  59  63 W8        30.01F
6HR MIN TEMP:  58; 6HR MAX TEMP:  72;

GRAND RAPIDS   MOSUNNY   73  56  54 W5        29.98F
6HR MIN TEMP:  57; 6HR MAX TEMP:  74;

KALAMAZOO      PTSUNNY   72  57  59 W9G17     30.00F
6HR MIN TEMP:  53; 6HR MAX TEMP:  73; 6HR PCP: TRACE;

MARSHALL       MOSUNNY   70  57  62 W8        30.00S
MUSKEGON       MOSUNNY   70  57  63 W12       30.00S
6HR MIN TEMP:  58; 6HR MAX TEMP:  71;

$$
MIZ016>042-291900-
NORTHERN LOWER MICHIGAN

CITY           SKY/WX    TMP DP  RH WIND       PRES   REMARKS
ALPENA         MOSUNNY   70  53  54 VRB7      29.90F
6HR MIN TEMP:  57; 6HR MAX TEMP:  72;

BEAVER ISLAND  MOSUNNY   65  58  78 W13       29.96S
6HR MIN TEMP:  55; 6HR MAX TEMP:  67;

BELLAIRE       PTSUNNY   66  56  69 NW7       29.95F
6HR MIN TEMP:  57; 6HR MAX TEMP:  66;

CADILLAC       PTSUNNY   68  56  67 W9G16     29.96F
CHARLEVOIX     PTSUNNY   66  59  79 W12       29.99S
6HR MIN TEMP:  59; 6HR MAX TEMP:  66;

FRANKFORT      PTCLDY    68  55  62 NW7       29.98S
GAYLORD        PTSUNNY   65  54  67 NW9G17    29.95S
6HR MIN TEMP:  53; 6HR MAX TEMP:  66;

GRAYLING       PTSUNNY   69  55  60 NW13      29.96S
6HR MIN TEMP:  54; 6HR MAX TEMP:  69;

HARBOR SPRINGS CLOUDY    64  56  78 SW8       29.95F
HOUGHTON LAKE  PTSUNNY   69  55  60 NW12      29.95F
6HR MIN TEMP:  56; 6HR MAX TEMP:  69;

MANISTEE       SUNNY     66  54  63 NW9       30.00S
OSCODA         PTSUNNY   71  56  59 N6        29.90F
PELLSTON       PTSUNNY   67  56  67 NW10      29.94F
6HR MIN TEMP:  59; 6HR MAX TEMP:  67;

TRAVERSE CITY  CLOUDY    71  55  56 N8        29.94F
6HR MIN TEMP:  58; 6HR MAX TEMP:  71;

$$
MIZ007>008-015-291900-
EASTERN UPPER MICHIGAN

CITY           SKY/WX    TMP DP  RH WIND       PRES   REMARKS
KINROSS        PTSUNNY   66  55  68 NW13      29.91F
6HR MIN TEMP:  52; 6HR MAX TEMP:  66;

MACKINAC ISLAN CLOUDY    63  57  79 SW12      29.92S
6HR MIN TEMP:  55; 6HR MAX TEMP:  64;

NEWBERRY       MOSUNNY   65  52  62 NW10G21   29.93F
S. S. MARIE    SUNNY     64  53  67 NW15      29.91S
6HR MIN TEMP:  51; 6HR MAX TEMP:  66;

$$
MIZ004>006-011>014-085-291900-
CENTRAL UPPER MICHIGAN

CITY           SKY/WX    TMP DP  RH WIND       PRES   REMARKS
MANISTIQUE     CLOUDY    69  56  64 N12G17    29.95S
ESCANABA       CLOUDY    68  54  60 NW10      29.96F
6HR MIN TEMP:  57; 6HR MAX TEMP:  70;

MENOMINEE      MOSUNNY   72  55  56 NW9       29.96F
6HR MIN TEMP:  57; 6HR MAX TEMP:  72;

$$
MIZ001>003-009>011-084-291900-
WESTERN UPPER MICHIGAN

CITY           SKY/WX    TMP DP  RH WIND       PRES   REMARKS
IRON MOUNTAIN  CLOUDY    70  54  56 NW14      29.98F
6HR MIN TEMP:  56; 6HR MAX TEMP:  71; 6HR PCP: TRACE;

COPPER HARBOR    N/A     61  55  81 N14       29.98S
6HR MIN TEMP:  58; 6HR MAX TEMP:  63;

$$

ABBREVIATIONS USED IN REMARKS
   TC - TEMPERATURE IN CELSIUS
  WCI - WIND CHILL INDEX
   HX - HEAT INDEX
  VSB - VISIBILITY



USA.gov is the U.S. government's official web portal to all federal, state and local government web resources and services.